TimeMST,TemperatureF,Dew PointF,Humidity,Sea Level PressureIn,VisibilityMPH,Wind Direction,Wind SpeedMPH,Gust SpeedMPH,PrecipitationIn,Events,Conditions,WindDirDegrees,DateUTC
12:51 AM,36.0,19.9,52,29.91,10.0,South,4.6,-,N/A,,Clear,170,2012-11-25 07:51:00
1:51 AM,39.0,21.0,49,29.89,10.0,South,3.5,-,N/A,,Clear,170,2012-11-25 08:51:00
2:51 AM,39.9,19.0,43,29.88,10.0,Calm,Calm,-,N/A,,Clear,0,2012-11-25 09:51:00
3:51 AM,35.1,19.0,52,29.89,10.0,North,5.8,-,N/A,,Clear,10,2012-11-25 10:51:00
4:51 AM,35.1,21.0,57,29.90,10.0,Calm,Calm,-,N/A,,Clear,0,2012-11-25 11:51:00
5:51 AM,35.1,21.9,59,29.92,10.0,Calm,Calm,-,N/A,,Clear,0,2012-11-25 12:51:00
6:51 AM,32.0,19.9,61,29.94,10.0,Calm,Calm,-,N/A,,Clear,0,2012-11-25 13:51:00
7:51 AM,41.0,23.0,49,29.94,10.0,Calm,Calm,-,N/A,,Clear,0,2012-11-25 14:51:00
8:51 AM,46.9,24.1,41,29.93,10.0,Calm,Calm,-,N/A,,Clear,0,2012-11-25 15:51:00
9:51 AM,54.0,28.0,37,29.91,10.0,ENE,3.5,-,N/A,,Clear,70,2012-11-25 16:51:00
10:51 AM,63.0,26.1,25,29.88,10.0,East,5.8,-,N/A,,Clear,100,2012-11-25 17:51:00
11:51 AM,69.1,25.0,19,29.83,10.0,East,4.6,-,N/A,,Clear,90,2012-11-25 18:51:00
12:51 PM,73.0,19.0,13,29.79,10.0,Calm,Calm,-,N/A,,Clear,0,2012-11-25 19:51:00
1:51 PM,77.0,14.0,9,29.76,10.0,Calm,Calm,-,N/A,,Clear,0,2012-11-25 20:51:00
2:51 PM,79.0,14.0,9,29.74,10.0,North,3.5,-,N/A,,Clear,350,2012-11-25 21:51:00
3:51 PM,77.0,14.0,9,29.76,10.0,WNW,12.7,-,N/A,,Clear,300,2012-11-25 22:51:00
4:51 PM,70.0,15.1,12,29.78,10.0,WNW,8.1,-,N/A,,Clear,290,2012-11-25 23:51:00
5:51 PM,63.0,17.1,17,29.81,10.0,WSW,3.5,-,N/A,,Clear,240,2012-11-26 00:51:00
6:51 PM,57.9,18.0,21,29.84,10.0,West,5.8,-,N/A,,Clear,260,2012-11-26 01:51:00
7:51 PM,55.9,23.0,28,29.82,10.0,West,12.7,-,N/A,,Clear,260,2012-11-26 02:51:00
8:51 PM,55.0,25.0,31,29.83,10.0,West,9.2,-,N/A,,Clear,270,2012-11-26 03:51:00
9:51 PM,52.0,25.0,35,29.83,10.0,WSW,9.2,-,N/A,,Clear,250,2012-11-26 04:51:00
10:51 PM,51.1,25.0,36,29.81,10.0,WSW,10.4,-,N/A,,Clear,250,2012-11-26 05:51:00
11:51 PM,53.1,26.1,35,29.80,10.0,WSW,11.5,-,N/A,,Clear,250,2012-11-26 06:51:00